Home > Time Zones > World Clock > Weather > U.S.A. > Yuma > Past weeks

Flag for U.S.A. Weather past 2 weeks in Yuma, Arizona, U.S.A.

Now
59 °F

Light rain. Passing clouds.


Feels Like: 60 °F
Forecast: 48 / 66 °F
Wind: 3 mph from North

Location: Yuma Marine Corps Air Station

Current Time: Mar 2, 2015 at 10:04:57 PM

Latest Report: Mar 2, 2015 at 8:57 PM


Visibility: 10 mi

Pressure: 29.96 "Hg

Humidity: 60%

Dew point: 45 °F

Location of YumaLocation

Historic Weather in Yuma — Graph

°F

Yuma temperature yesterday

Maximum temperature yesterday: 64 °F (at 10:57 AM)
Minimum temperature yesterday: 54 °F (at 8:04 PM)
Average temperature yesterday: 59 °F

Past Weeks' High & Low Weather Summary

 TemperatureHumidityPressure
High85 °F (Feb 19, 3:57 PM)93% (Mar 1, 10:57 PM)30.16 "Hg (Mar 1, 10:57 PM)
Low46 °F (Feb 25, 6:57 AM)10% (Feb 18, 1:57 PM)29.61 "Hg (Feb 27, 5:57 PM)
Average65 °F45%29.91 "Hg
* Reported Feb 15 8:57 PM — Mar 2 8:57 PM, Yuma, Weather by CustomWeather, © 2015

Note: Actual official high and low records may vary slightly from our data, if they occured in-between our weather recording intervals... More about our weather records

Advertising

Yuma weather history for previous 24 hours

 ConditionsComfort  
Time TempWeatherWind HumidityBarometerVisibility
8:57 PM
Mon, Mar 2
59 °FLight rain. Passing clouds.3 mph60%29.96 "Hg10 mi
7:57 PM59 °FPassing clouds.3 mph64%29.94 "Hg10 mi
6:57 PM59 °FPassing clouds.5 mph64%29.93 "Hg10 mi
5:57 PM61 °FPartly sunny.8 mph56%29.92 "Hg10 mi
4:57 PM60 °FBroken clouds.10 mph62%29.90 "Hg10 mi
3:57 PM64 °FScattered clouds.12 mph54%29.89 "Hg10 mi
2:57 PM64 °FPartly sunny.8 mph54%29.89 "Hg10 mi
1:57 PM63 °FPartly sunny.7 mph60%29.90 "Hg10 mi
12:57 PM63 °FPartly sunny.6 mph60%29.92 "Hg10 mi
11:57 AM60 °FBroken clouds.No wind69%29.93 "Hg10 mi
10:57 AM57 °FBroken clouds.No wind74%29.93 "Hg10 mi
9:57 AM55 °FScattered clouds.No wind80%29.93 "Hg10 mi
8:57 AM54 °FLight rain. Broken clouds.No wind83%29.91 "Hg10 mi
7:57 AM53 °FLight rain. Broken clouds.5 mph89%29.92 "Hg10 mi
6:57 AM52 °FLight rain. Mostly cloudy.No wind93%29.90 "Hg10 mi
5:57 AM53 °FLight rain. Mostly cloudy.6 mph89%29.88 "Hg10 mi
4:57 AM53 °FLight rain. Mostly cloudy.8 mph89%29.88 "Hg10 mi
3:57 AM54 °FLight rain. Overcast.7 mph90%29.90 "Hg7 mi
2:57 AM53 °FLight rain. Overcast.7 mph89%29.92 "Hg10 mi
1:57 AM53 °FLight rain. Overcast.3 mph93%29.94 "Hg10 mi
12:57 AM53 °FMostly cloudy.7 mph93%29.95 "Hg9 mi
11:57 PM
Sun, Mar 1
54 °FLight rain. Fog.8 mph90%29.96 "Hg4 mi
10:57 PM54 °FLow clouds.5 mph93%29.95 "Hg7 mi
Weather by CustomWeather, © 2015

See weather overviewHow to use our weather pages